Location: Charlottesville
(38.0290°N, 78.4770°W)
Time: 10:45:28
(UTC-04:00)

Hubble Space Telescope - Pass Details

Date: 10 October 2017
Orbit: 537 x 541 km, 28.5° (Epoch: 19 October)

Event Time Altitude Azimuth Distance (km) Brightness Sun altitude
Exits shadow 05:08:17 13° 155° (SSE) 1,629 3.3 -26.2°
Drops below altitude 10° 05:08:56 10° 148° (SSE) 1,786 3.6 -26.1°
Sets 05:11:45 0° 128° (SE) 2,676 4.9 -25.6°
